Regional Weather Roundup
Issued by NWS Northern Indiana

Home | Current Version | Previous Version | Graphics & Text | Print | Product List | Glossary On
Versions: 1 2 3 4 5 6 7 8 9 10 11 12 13 14 15 16 17 18 19 20 21 22 23 24 25 26 27 28 29 30 31 32 33 34 35 36 37 38 39 40 41 42 43 44 45 46 47 48 49 50
000
ASUS43 KIWX 161300
RWRIWX

KIWX WEATHER ROUNDUP
NATIONAL WEATHER SERVICE NORTHERN INDIANA
800 AM EST MON JAN 16 2017

NOTE: "FAIR" INDICATES FEW OR NO CLOUDS BELOW 12,000 FEET WITH NO
SIGNIFICANT WEATHER AND/OR OBSTRUCTIONS TO VISIBILITY.

* THESE STATIONS ARE NOT UNDER NWS QUALITY CONTROL. THEY ALSO MAY NOT
  REPORT WEATHER SUCH AS PRECIPITATION OR FOG.

INZ001>027-161400-
NORTHERN INDIANA

CITY           SKY/WX    TMP DP  RH WIND       PRES   REMARKS
GARY*          CLOUDY    36  28  75 NE5       30.27S
KNOX*          CLOUDY    32  19  59 NE5       30.25F WCI  27
SOUTH BEND     CLOUDY    31  27  85 E6        30.27F WCI  25
GOSHEN         CLOUDY    32  26  78 SE3       30.27F HAZE
FORT WAYNE     CLOUDY    33  29  85 E7        30.28F FOG     WCI  27

$$
INZ028>050-161400-
CENTRAL INDIANA

CITY           SKY/WX    TMP DP  RH WIND       PRES   REMARKS
LAFAYETTE      CLOUDY    34  34 100 E5        30.24F FOG     WCI  30
KOKOMO*        MIX PCPN  33  32  96 E7        30.26S FOG     WCI  27
MUNCIE*        CLOUDY    35  33  92 SE6       30.25F FOG     WCI  30
INDIANAPOLIS   CLOUDY    37  35  92 E7        30.24S FOG

$$
MIZ043>046-050>051-056>058-064>065-071>073-077>080-161400-
SOUTHWEST LOWER MICHIGAN

CITY           SKY/WX    TMP DP  RH WIND       PRES   REMARKS
BATTLE CREEK   CLOUDY    28  23  81 SE5       30.29F WCI  23
BENTON HARBOR  FRZ RAIN  32  27  81 E5        30.29S WCI  27
COLDWATER*     CLOUDY    31  27  84 E3        30.29S
HILLSDALE*     CLOUDY    28  27  93 E3        30.28F FOG
HOLLAND        CLOUDY    29  23  78 SE5       30.29F WCI  24
GRAND RAPIDS   CLOUDY    25  21  85 CALM      30.29F FOG
KALAMAZOO      CLOUDY    29  23  78 S5        30.30S HAZE    WCI  24
STURGIS*       CLOUDY    31  27  84 E5        30.28S WCI  26
THREE RIVERS*  LGT SNOW  30  26  86 CALM      30.30S

$$
OHZ001>008-015>018-024>025-161400-
NORTHWEST OHIO

CITY           SKY/WX    TMP DP  RH WIND       PRES   REMARKS
DEFIANCE       CLOUDY    32  26  78 E5        30.31S HAZE    WCI  27
FINDLAY        CLOUDY    32  27  81 E5        30.30S HAZE    WCI  27
TOLEDO EXPRESS CLOUDY    28  26  92 CALM      30.33R FOG
TOLEDO METCALF CLOUDY    30  27  88 CALM      30.35R FOG
LIMA           CLOUDY    33  31  92 E5        30.29F FOG     WCI  29

$$
AND FOR LAKE MICHIGAN COASTAL AND OPEN LAKE BUOY OBSERVATIONS

STATION/POSITION TEMP    WIND        PRES    VSBY  WAVE
                 AIR SEA DIR/SP/G                  HT/PER
                 (F)     (DEG/KT/KT) (MB)    (MI)  (FT/S)
CALUMET HARBOR    32      30/  4/  6 1024.5R
MICHIGAN CITY     32      50/  5/  6   N/A
BURNS HARBOR      32      80/  7/  9 1025.1F
SAINT JOSEPH      31      40/  1/  3 1026.1

$$
&&



USA.gov is the U.S. government's official web portal to all federal, state and local government web resources and services.